Weather reports worldwide

Advertisment
Zwiesel, Germany (10796): temperature & dewpoint: 14.08.2019 06:00:00 - 20.08.2019 06:00:00 (CEST)Zwiesel, Germany (10796): temperature 5cm & temperature -5cm: 14.08.2019 06:00:00 - 20.08.2019 06:00:00 (CEST)Zwiesel, Germany (10796): temperature -20cm & temperature -100cm: 14.08.2019 06:00:00 - 20.08.2019 06:00:00 (CEST)Zwiesel, Germany (10796): wind speed & gusts: 14.08.2019 06:00:00 - 20.08.2019 06:00:00 (CEST)Zwiesel, Germany (10796): wind direction: 14.08.2019 06:00:00 - 20.08.2019 06:00:00 (CEST)Zwiesel, Germany (10796): reduced air pressure: 14.08.2019 06:00:00 - 20.08.2019 06:00:00 (CEST)Zwiesel, Germany (10796): visibility: 14.08.2019 06:00:00 - 20.08.2019 06:00:00 (CEST)Zwiesel, Germany (10796): sunshine duration: 14.08.2019 06:00:00 - 20.08.2019 06:00:00 (CEST)Zwiesel, Germany (10796): precipitation: 14.08.2019 06:00:00 - 20.08.2019 06:00:00 (CEST)
Date & Time tt [°C] td [°C] tt 5cm [°C] tt -5cm [°C] tt -20cm [°C] tt -100cm [°C] ff [km/h] ff [kn] fx [km/h] fx [kn] dd ppp [hPa] vv [km] sd [min] rr [mm]
20.08.2019 06:00:00 15,5 15,0 15,4 16,4 19,0 16,9 9 5 15 8 ESE 1020,3 9 0 0,0
20.08.2019 05:00:00 15,2 14,8 15,2 16,5 19,1 16,9 4 2 6 3 SW 1020,6 5 0 0,0
20.08.2019 04:00:00 15,3 14,9 15,3 16,6 19,3 16,9 5 3 7 4 ESE 1020,7 14 0 0,1
20.08.2019 03:00:00 15,5 15,0 15,3 16,7 19,5 16,9 4 2 11 6 SSW 1020,2 18 0 0,1
20.08.2019 02:00:00 15,5 15,0 15,4 17,0 19,7 16,9 4 2 8 4 W 1019,8 16 0 1,2
20.08.2019 01:00:00 15,7 15,0 15,6 17,2 19,9 16,9 3 2 7 4 SE 1020,7 4,3 0 0,4
20.08.2019 00:00:00 15,8 14,9 15,0 17,4 20,1 16,9 2 1 8 4 NNE 1020,2 38 0 0,0
19.08.2019 23:00:00 15,9 15,0 15,0 17,8 20,3 16,9 4 2 7 4 ESE 1020,0 45 0 0,0
19.08.2019 22:00:00 16,5 15,2 14,7 18,8 20,5 16,9 3 1 9 5 NNE 1019,7 49 0 0,0
19.08.2019 21:00:00 17,5 15,3 16,4 20,0 20,5 16,8 2 1 7 4 SW 1019,0 70 0 0,0
19.08.2019 20:00:00 19,0 15,0 18,1 21,7 20,5 16,8 0 0 8 4 N 1017,9 70 16 0,0
19.08.2019 19:00:00 21,2 15,3 22,1 22,8 20,4 16,8 2 1 10 5 W 1017,2 70 9 0,0
19.08.2019 18:00:00 21,0 15,2 21,8 24,0 20,2 16,8 4 2 13 7 SW 1017,1 70 12 0,0
19.08.2019 17:00:00 21,0 14,6 24,6 24,6 20,0 16,8 5 3 14 7 SW 1017,3 70 16 0,0
19.08.2019 16:00:00 20,6 15,0 23,1 23,2 19,8 16,8 7 4 12 7 SSW 1017,6 70 4 0,0
19.08.2019 15:00:00 19,5 14,7 20,2 22,6 19,7 16,8 4 2 15 8 SW 1017,9 70 0 0,0
19.08.2019 14:00:00 19,5 14,5 22,5 22,3 19,5 16,8 8 4 15 8 SW 1017,5 70 0 0,0
19.08.2019 13:00:00 18,7 14,5 19,8 22,3 19,4 16,8 12 6 22 12 WSW 1017,8 70 2 0,0
19.08.2019 12:00:00 18,9 13,8 21,7 22,1 19,3 16,8 10 6 19 10 S 1017,9 70 23 0,0
19.08.2019 11:00:00 17,5 15,2 18,7 19,6 19,3 16,8 7 4 26 14 WSW 1017,8 70 0 0,0
19.08.2019 10:00:00 17,3 14,8 18,3 19,5 19,4 16,8 11 6 21 11 SSW 1017,4 70 1 0,0
19.08.2019 09:00:00 16,9 14,7 17,9 18,5 19,5 16,8 11 6 20 11 S 1017,4 70 3 0,0
19.08.2019 08:00:00 15,9 15,1 15,8 17,3 19,7 16,9 5 3 13 7 S 1017,6 46 0 0,4
19.08.2019 07:00:00 15,6 14,9 15,4 17,1 19,9 16,9 8 5 14 8 ESE 1016,6 19 0 0,8
19.08.2019 06:00:00 16,0 15,1 15,7 17,3 20,1 16,9 10 6 18 10 WNW 1016,3 15 0 0,7
19.08.2019 05:00:00 17,0 14,9 16,0 17,4 20,3 16,9 5 3 49 26 S 1016,5 70 0 0,9
19.08.2019 04:00:00 16,2 14,3 15,5 17,1 20,6 16,9 5 3 8 5 S 1015,0 41 0 0,0
19.08.2019 03:00:00 15,7 13,7 14,3 17,3 21,0 16,9 4 2 10 5 SE 1014,0 43 0 0,0
19.08.2019 02:00:00 16,1 14,6 15,4 17,8 21,3 16,9 3 2 9 5 SSE 1013,7 45 0 0,0
19.08.2019 01:00:00 16,9 14,5 14,0 18,5 21,6 16,9 4 2 10 5 NNW 1012,4 45 0 0,0
19.08.2019 00:00:00 17,5 14,6 15,7 19,4 22,0 16,9 6 3 16 9 SE 1011,6 49 0 0,0
18.08.2019 23:00:00 18,4 14,9 15,5 20,4 22,3 16,9 3 2 9 5 NW 1010,6 55 0 0,0
18.08.2019 22:00:00 19,3 15,3 16,5 21,9 22,5 16,9 4 2 9 5 N 1010,1 43 0 0,0
18.08.2019 21:00:00 23,3 14,8 19,2 23,9 22,6 16,9 6 4 17 9 ESE 1008,9 70 0 0,0
18.08.2019 20:00:00 25,3 14,9 21,9 26,7 22,5 16,9 9 5 20 11 E 1007,9 70 49 0,0
18.08.2019 19:00:00 27,7 13,9 28,1 29,3 22,2 16,9 11 6 34 18 SSE 1008,0 68 60 0,0
18.08.2019 18:00:00 28,5 13,5 30,5 31,1 21,8 16,9 10 5 21 11 S 1008,5 46 60 0,0
18.08.2019 17:00:00 28,2 13,7 30,8 32,2 21,2 16,9 11 6 27 15 S 1008,8 49 60 0,0
18.08.2019 16:00:00 27,7 13,7 31,0 33,3 20,4 16,9 13 7 22 12 SSE 1009,2 49 59 0,0
18.08.2019 15:00:00 26,8 13,3 30,2 33,1 19,6 16,9 15 8 33 18 W 1009,6 54 60 0,0
18.08.2019 14:00:00 26,6 13,4 30,0 31,9 18,9 16,9 15 8 29 16 SW 1009,8 26 60 0,0
18.08.2019 13:00:00 25,9 13,8 29,7 29,6 18,3 16,9 12 7 22 12 WSW 1009,9 43 60 0,0
18.08.2019 12:00:00 24,9 13,3 28,3 27,0 17,8 16,9 9 5 19 11 S 1010,4 45 60 0,0
18.08.2019 11:00:00 23,3 12,8 27,6 24,0 17,5 16,9 8 4 14 8 S 1010,9 54 60 0,0
18.08.2019 10:00:00 20,7 11,3 25,6 20,6 17,4 16,9 3 2 5 3 NW 1011,6 61 56 0,0
18.08.2019 09:00:00 17,3 13,5 19,2 17,4 17,5 16,9 2 1 6 3 W 1012,3 67 24 0,0
18.08.2019 08:00:00 14,7 13,2 15,2 15,6 17,6 16,9 3 2 6 3 WSW 1012,8 50 3 0,0
18.08.2019 07:00:00 13,8 12,8 13,6 15,1 17,8 17,0 3 2 6 3 NW 1012,9 37 0 0,0
18.08.2019 06:00:00 13,8 12,9 12,9 15,3 17,9 17,0 3 1 6 3 S 1013,1 44 0 0,0
18.08.2019 05:00:00 14,2 12,8 13,2 15,7 18,1 17,0 4 2 13 7 NW 1013,1 54 0 0,0
18.08.2019 04:00:00 15,3 12,8 14,7 16,3 18,2 17,0 11 6 16 8 ESE 1013,4 61 0 0,0
18.08.2019 03:00:00 16,0 13,0 15,0 16,8 18,3 17,0 0 0 10 6 N 1014,0 70 0 0,0
18.08.2019 02:00:00 16,7 12,6 15,7 17,0 18,5 17,0 5 3 15 8 SSE 1014,0 69 0 0,0
18.08.2019 01:00:00 16,2 15,1 15,8 17,3 18,6 17,0 3 1 7 4 W 1014,0 17 0 0,0
18.08.2019 00:00:00 15,9 14,9 15,6 17,5 18,7 17,0 4 2 9 5 SSE 1013,7 21 0 0,0
17.08.2019 23:00:00 15,8 15,0 15,5 18,1 18,9 17,0 2 1 5 3 NW 1013,9 20 0 0,1
17.08.2019 22:00:00 16,2 15,2 15,8 18,7 19,0 17,0 2 1 5 3 WNW 1013,9 25 0 0,0
17.08.2019 21:00:00 16,6 15,5 16,3 19,5 19,0 17,0 2 1 6 4 WNW 1013,9 22 0 0,0
17.08.2019 20:00:00 17,2 15,3 16,7 20,6 18,9 17,0 4 2 6 3 NW 1013,5 30 0 0,0
17.08.2019 19:00:00 18,8 14,1 17,7 22,1 18,7 17,0 3 2 6 3 NNW 1013,5 19 0 0,1
17.08.2019 18:00:00 20,3 12,9 20,6 23,3 18,4 17,0 4 2 18 10 S 1013,1 51 0 0,0
17.08.2019 17:00:00 21,1 10,3 22,2 24,8 18,0 17,0 9 5 16 9 SW 1013,0 70 15 0,0
17.08.2019 16:00:00 21,2 11,4 22,6 24,7 17,6 17,0 8 5 22 12 SW 1013,5 68 12 0,0
17.08.2019 15:00:00 21,2 10,8 24,1 24,5 17,1 17,0 10 5 21 11 SSW 1013,9 64 33 0,0
17.08.2019 14:00:00 20,4 9,6 23,2 23,5 16,7 17,0 12 6 19 11 S 1014,3 63 47 0,0
17.08.2019 13:00:00 19,6 9,9 24,2 20,9 16,3 17,0 8 5 14 8 SW 1015,0 67 11 0,0
17.08.2019 12:00:00 18,7 10,0 20,2 19,8 16,0 17,0 7 4 16 9 S 1015,2 70 0 0,0
17.08.2019 11:00:00 17,6 10,7 20,0 18,7 15,8 17,1 4 2 8 4 WNW 1015,6 58 4 0,0
17.08.2019 10:00:00 17,6 9,1 22,0 17,3 15,8 17,1 2 1 5 3 WNW 1015,9 60 60 0,0
17.08.2019 09:00:00 11,4 9,6 12,4 12,9 15,9 17,1 3 2 6 4 NW 1017,1 36 8 0,0
17.08.2019 08:00:00 9,8 8,7 10,5 11,4 16,1 17,1 4 2 5 3 SSE 1017,8 34 0 0,0
17.08.2019 07:00:00 8,5 7,9 8,7 10,6 16,4 17,1 2 1 5 3 WSW 1018,0 31 0 0,0
17.08.2019 06:00:00 7,6 7,2 7,0 10,2 16,7 17,1 0 0 6 3 N 1018,5 19 0 0,0
17.08.2019 05:00:00 7,5 7,1 6,5 10,2 17,1 17,1 2 1 7 4 W 1018,6 17 0 0,0
17.08.2019 04:00:00 7,7 7,1 6,1 10,7 17,4 17,1 4 2 8 4 SSE 1018,7 23 0 0,0
17.08.2019 03:00:00 8,7 8,2 7,2 11,3 17,8 17,1 4 2 8 4 NNE 1018,4 28 0 0,0
17.08.2019 02:00:00 8,9 8,2 7,4 12,1 18,1 17,1 4 2 8 4 E 1019,0 26 0 0,0
17.08.2019 01:00:00 9,7 8,9 8,2 13,0 18,5 17,1 4 2 7 4 SE 1019,1 26 0 0,0
17.08.2019 00:00:00 10,6 9,6 8,2 14,1 18,8 17,1 3 2 8 5 N 1018,9 27 0 0,0
16.08.2019 23:00:00 11,3 9,5 9,2 15,3 19,0 17,1 4 2 8 5 NE 1018,7 38 0 0,0
16.08.2019 22:00:00 12,5 10,5 10,5 16,7 19,2 17,1 2 1 4 2 N 1018,4 45 0 0,0
16.08.2019 21:00:00 14,1 10,5 11,5 18,4 19,2 17,1 2 1 7 4 NNW 1018,0 61 0 0,0
16.08.2019 20:00:00 16,5 10,5 14,9 20,7 19,1 17,1 3 1 13 7 NW 1016,9 65 37 0,0
16.08.2019 19:00:00 19,3 10,1 20,8 22,9 18,8 17,1 7 4 14 8 W 1016,2 70 60 0,0
16.08.2019 18:00:00 19,3 9,8 21,8 24,1 18,5 17,1 11 6 19 10 W 1016,4 46 46 0,0
16.08.2019 17:00:00 19,0 9,9 22,0 24,6 18,1 17,2 9 5 30 16 W 1016,8 63 46 0,0
16.08.2019 16:00:00 19,1 10,4 24,2 23,2 17,8 17,2 6 3 23 12 WNW 1017,1 62 32 0,0
16.08.2019 15:00:00 17,3 10,0 19,2 23,2 17,5 17,2 12 6 24 13 W 1018,0 58 26 0,0
16.08.2019 14:00:00 16,4 10,1 19,2 21,3 17,3 17,2 8 4 18 10 S 1018,4 61 26 0,0
16.08.2019 13:00:00 14,3 12,1 14,4 19,2 17,1 17,2 12 6 29 16 WSW 1019,4 20 2 0,3
16.08.2019 12:00:00 16,0 10,0 18,6 19,7 16,9 17,2 11 6 23 13 W 1018,8 55 20 0,0
16.08.2019 11:00:00 15,8 10,7 20,1 17,7 16,9 17,2 10 6 24 13 W 1019,2 51 9 0,0
16.08.2019 10:00:00 14,3 11,1 15,8 16,2 16,9 17,2 8 5 19 11 W 1019,4 43 0 0,1
16.08.2019 09:00:00 13,6 11,7 13,9 15,3 17,0 17,2 8 4 14 7 WSW 1019,3 6 0 0,1
16.08.2019 08:00:00 13,5 11,9 13,5 14,8 17,1 17,2 7 4 18 10 W 1019,0 37 0 0,2
16.08.2019 07:00:00 13,8 11,2 13,6 14,6 17,2 17,2 9 5 16 9 W 1018,5 51 0 0,0
16.08.2019 06:00:00 13,9 11,1 13,5 14,5 17,4 17,2 7 4 18 10 W 1018,3 62 0 0,0
16.08.2019 05:00:00 13,9 11,1 12,9 14,6 17,5 17,2 6 3 11 6 W 1017,9 68 0 0,0
16.08.2019 04:00:00 13,9 12,4 13,5 15,0 17,6 17,2 5 3 11 6 S 1017,6 25 0 0,0
16.08.2019 03:00:00 13,6 12,8 13,5 15,2 17,8 17,2 2 1 6 3 SW 1017,2 17 0 0,0
16.08.2019 02:00:00 13,2 12,6 13,0 15,3 18,0 17,3 2 1 7 4 WNW 1017,1 11 0 0,0
16.08.2019 01:00:00 13,5 12,7 12,6 15,5 18,1 17,3 4 2 9 5 E 1017,0 22 0 0,0
16.08.2019 00:00:00 14,2 13,2 13,2 16,4 18,2 17,3 4 2 5 3 SSW 1016,9 24 0 0,0
15.08.2019 23:00:00 14,7 13,2 14,4 16,9 18,4 17,3 3 2 10 5 NW 1016,4 35 0 0,0
15.08.2019 22:00:00 14,7 13,0 14,2 17,4 18,5 17,3 7 4 11 6 ESE 1015,9 48 0 0,0
15.08.2019 21:00:00 14,9 12,9 14,4 18,1 18,5 17,3 5 3 11 6 ESE 1015,6 45 0 0,2
15.08.2019 20:00:00 17,1 11,2 15,9 19,3 18,4 17,3 5 3 14 8 WSW 1014,7 70 18 0,0
15.08.2019 19:00:00 18,1 11,7 19,2 20,4 18,4 17,3 6 3 11 6 S 1014,0 70 36 0,0
15.08.2019 18:00:00 16,8 11,2 17,9 20,3 18,3 17,3 6 3 15 8 S 1014,5 59 9 0,0
15.08.2019 17:00:00 16,0 12,0 16,9 19,9 18,1 17,3 13 7 36 19 WSW 1015,1 38 0 0,0
15.08.2019 16:00:00 18,0 10,9 17,2 21,9 17,8 17,3 8 5 32 18 WSW 1014,1 36 0 0,0
15.08.2019 15:00:00 19,2 8,2 20,9 23,5 17,3 17,3 16 9 34 18 WSW 1014,0 66 24 0,0
15.08.2019 14:00:00 19,5 7,4 21,8 23,4 16,8 17,3 13 7 27 15 S 1013,9 50 33 0,0
15.08.2019 13:00:00 20,0 6,8 23,5 22,8 16,3 17,3 11 6 23 13 SSW 1014,0 70 43 0,0
15.08.2019 12:00:00 18,9 8,5 22,0 21,9 15,9 17,3 10 6 25 13 S 1014,6 46 60 0,0
15.08.2019 11:00:00 18,6 7,3 21,7 20,2 15,6 17,3 11 6 18 10 SSW 1014,9 48 60 0,0
15.08.2019 10:00:00 16,1 8,3 19,7 16,7 15,5 17,3 4 2 7 4 WNW 1015,6 52 60 0,0
15.08.2019 09:00:00 12,4 8,0 14,6 12,9 15,7 17,3 2 1 6 3 W 1017,1 57 60 0,0
15.08.2019 08:00:00 9,5 7,2 10,1 10,0 16,0 17,3 3 1 4 2 WSW 1018,1 39 60 0,0
15.08.2019 07:00:00 6,4 5,9 6,0 8,9 16,3 17,4 3 1 5 3 N 1019,3 23 5 0,0
15.08.2019 06:00:00 6,2 5,8 4,9 9,2 16,6 17,4 3 2 4 2 E 1019,5 17 0 0,0
15.08.2019 05:00:00 6,3 5,8 5,1 9,8 16,9 17,4 4 2 5 3 SE 1019,7 18 0 0,0
15.08.2019 04:00:00 6,9 6,4 5,0 10,5 17,2 17,4 3 1 6 4 W 1019,9 14 0 0,0
15.08.2019 03:00:00 7,2 6,7 7,2 10,7 17,6 17,4 0 0 6 3 N 1020,4 16 0 0,0
15.08.2019 02:00:00 7,5 6,9 6,2 11,3 17,9 17,4 3 2 6 3 SE 1020,6 16 0 0,0
15.08.2019 01:00:00 8,3 7,4 6,6 12,1 18,3 17,4 2 1 9 5 N 1020,4 26 0 0,0
15.08.2019 00:00:00 9,3 7,9 7,3 13,1 18,6 17,4 4 2 10 5 N 1020,2 39 0 0,0
14.08.2019 23:00:00 9,7 8,5 8,1 14,2 18,8 17,4 2 1 4 2 NW 1020,2 36 0 0,0
14.08.2019 22:00:00 10,8 9,2 8,9 15,7 19,0 17,4 3 2 5 3 WNW 1020,0 39 0 0,0
14.08.2019 21:00:00 12,7 9,5 10,3 17,6 19,1 17,4 2 1 6 3 WNW 1019,0 46 4 0,0
14.08.2019 20:00:00 16,9 8,8 16,1 19,5 19,0 17,4 4 2 11 6 WSW 1017,6 70 47 0,0
14.08.2019 19:00:00 17,8 7,2 19,5 20,9 18,9 17,4 4 2 23 12 WNW 1017,4 68 60 0,0
14.08.2019 18:00:00 17,7 7,2 19,8 22,1 18,6 17,4 19 11 28 15 W 1017,5 35 42 0,0
14.08.2019 17:00:00 18,2 7,9 20,7 22,7 18,4 17,4 12 6 24 13 WSW 1017,6 48 42 0,0
14.08.2019 16:00:00 15,2 8,4 16,3 21,9 18,2 17,4 11 6 27 15 N 1018,7 67 12 0,0
14.08.2019 15:00:00 16,4 7,9 21,0 20,9 18,0 17,4 7 4 29 16 NNE 1018,8 38 22 0,1
14.08.2019 14:00:00 14,8 6,8 12,4 20,8 17,6 17,4 14 8 27 14 NW 1019,4 27 7 0,1
14.08.2019 13:00:00 16,9 6,7 18,3 22,5 17,2 17,4 6 3 26 14 WSW 1018,7 70 29 0,0
14.08.2019 12:00:00 16,7 6,6 20,0 21,8 16,9 17,4 16 9 28 15 W 1018,7 51 58 0,0
14.08.2019 11:00:00 16,2 6,5 18,4 19,9 16,7 17,4 13 7 22 12 W 1019,0 65 43 0,0
14.08.2019 10:00:00 14,8 8,2 17,3 17,2 16,7 17,4 5 3 10 5 SW 1019,5 61 60 0,0
14.08.2019 09:00:00 12,3 9,2 13,2 14,0 16,9 17,4 2 1 6 3 WSW 1020,2 32 28 0,0
14.08.2019 08:00:00 10,3 9,4 10,8 12,3 17,1 17,4 3 2 8 4 NNW 1020,8 20 8 0,0
14.08.2019 07:00:00 9,4 9,0 8,9 11,9 17,3 17,4 2 1 9 5 WSW 1020,7 6 0 0,0
14.08.2019 06:00:00 9,6 9,2 9,7 12,1 17,6 17,4 3 2 5 3 W 1020,3 19 0 0,0

tt = temperature
td = dewpoint
tt 5cm = temperature 5cm
tt -5cm = temperature -5cm
tt -20cm = temperature -20cm
tt -100cm = temperature -100cm
ff = wind speed
fx = gusts
dd = wind direction
ppp = reduced air pressure
vv = visibility
sd = sunshine duration
rr = precipitation

Next stations